Location: Bohy
(49.9380°N, 13.5753°E)
Time: 16:07:46
(UTC+00:00)

Cosmos 2074 Rocket - Pass Details

Date: 19 May 2025
Orbit: 965 x 986 km, 82.9° (Epoch: 16 June)

Event Time Altitude Azimuth Distance (km) Brightness Sun altitude
Rises 19:39:33 0° 348° (NNW) 3,680 8.0 -7.0°
Reaches altitude 10° 19:42:05 10° 346° (NNW) 2,726 7.4 -7.3°
Maximum altitude 19:48:14 66° 266° (W) 1,056 4.4 -8.0°
Drops below altitude 10° 19:54:21 10° 186° (S) 2,699 5.9 -8.7°
Sets 19:56:51 0° 183° (S) 3,641 6.6 -9.0°
